Powrót do katalogu

COSMOS 2437

AktywnyNawigacjaPO
NORAD 32954·PAYLOAD·🇷🇺 Russia

Wystrzelony May 23, 2008 z Plesetsk Cosmodrome

Loading…

Następne Przeloty (najbliższe 24 godziny)

TLE

ŚwieżeSource: Space-Track

Epoka: Sep 14, 2026, 14:12 UTC

1 32954U 08025B   26257.59185206 -.00000012  00000-0 -15773-3 0  9997
2 32954  82.5007 301.8955 0021533 132.6155  22.6667 12.42760819830476

Śledź COSMOS 2437 w czasie rzeczywistym z AllMySat

Download on the App Store